Time,TemperatureF,DewpointF,PressureIn,WindDirection,WindDirectionDegrees,WindSpeedMPH,WindSpeedGustMPH,Humidity,HourlyPrecipIn,Conditions,Clouds,dailyrainin,SolarRadiationWatts/m^2,SoftwareType,DateUTC
2013-02-17 00:00:00,0.9,-3.3,30.23,NNE,19,0.0,0.0,82,0.00,,---,0.00,0.00,VWS V14.01,2013-02-17 06:00:00,
2013-02-17 00:05:00,0.8,-3.4,30.23,NNE,19,0.0,0.0,82,0.00,,---,0.00,0.00,VWS V14.01,2013-02-17 06:05:00,
2013-02-17 00:10:00,0.7,-3.5,30.23,NNE,19,0.0,1.0,82,0.00,,---,0.00,0.00,VWS V14.01,2013-02-17 06:10:00,
2013-02-17 00:15:00,0.6,-3.6,30.23,NNE,19,0.0,1.0,82,0.00,,---,0.00,0.00,VWS V14.01,2013-02-17 06:15:00,
2013-02-17 00:20:00,0.5,-3.7,30.23,NNE,19,0.0,1.0,82,0.00,,---,0.00,0.00,VWS V14.01,2013-02-17 06:20:00,
2013-02-17 00:25:00,0.4,-3.8,30.23,NNE,19,0.0,1.0,82,0.00,,---,0.00,0.00,VWS V14.01,2013-02-17 06:25:00,
2013-02-17 00:30:00,0.3,-3.9,30.23,NNE,19,0.0,1.0,82,0.00,,---,0.00,0.00,VWS V14.01,2013-02-17 06:30:00,
2013-02-17 00:35:00,0.2,-4.0,30.23,NNE,19,0.0,1.0,82,0.00,,---,0.00,0.00,VWS V14.01,2013-02-17 06:35:00,
2013-02-17 00:40:00,0.1,-3.8,30.23,NNE,19,0.0,1.0,83,0.00,,---,0.00,0.00,VWS V14.01,2013-02-17 06:40:00,
2013-02-17 00:45:00,0.1,-3.9,30.23,NNE,19,0.0,1.0,83,0.00,,---,0.00,0.00,VWS V14.01,2013-02-17 06:45:00,
2013-02-17 00:50:00,-0.1,-4.0,30.23,NNE,19,0.0,1.0,83,0.00,,---,0.00,0.00,VWS V14.01,2013-02-17 06:50:00,
2013-02-17 00:55:00,-0.2,-4.1,30.23,NNE,19,0.0,1.0,83,0.00,,---,0.00,0.00,VWS V14.01,2013-02-17 06:55:00,
2013-02-17 01:00:00,-0.2,-4.1,30.23,NNE,19,0.0,0.0,83,0.00,,---,0.00,0.00,VWS V14.01,2013-02-17 07:00:00,
2013-02-17 01:05:00,-0.3,-4.2,30.23,NNE,19,0.0,0.0,83,0.00,,---,0.00,0.00,VWS V14.01,2013-02-17 07:05:00,
2013-02-17 01:10:00,-0.4,-4.3,30.23,NNE,19,0.0,0.0,83,0.00,,---,0.00,0.00,VWS V14.01,2013-02-17 07:10:00,
2013-02-17 01:15:00,-0.4,-4.3,30.23,NNE,19,0.0,0.0,83,0.00,,---,0.00,0.00,VWS V14.01,2013-02-17 07:15:00,
2013-02-17 01:20:00,-0.5,-4.4,30.23,NNE,19,0.0,0.0,83,0.00,,---,0.00,0.00,VWS V14.01,2013-02-17 07:20:00,
2013-02-17 01:25:00,-0.6,-4.5,30.23,NNE,19,0.0,0.0,83,0.00,,---,0.00,0.00,VWS V14.01,2013-02-17 07:25:00,
2013-02-17 01:30:00,-0.7,-4.6,30.23,NNE,19,0.0,0.0,83,0.00,,---,0.00,0.00,VWS V14.01,2013-02-17 07:30:00,
2013-02-17 01:35:00,-0.7,-4.6,30.23,NNE,19,0.0,0.0,83,0.00,,---,0.00,0.00,VWS V14.01,2013-02-17 07:35:00,
2013-02-17 01:40:00,-0.8,-4.7,30.23,NNE,19,1.0,1.0,83,0.00,,---,0.00,0.00,VWS V14.01,2013-02-17 07:40:00,
2013-02-17 01:45:00,-0.9,-4.8,30.23,NNE,19,0.0,2.0,83,0.00,,---,0.00,0.00,VWS V14.01,2013-02-17 07:45:00,
2013-02-17 01:50:00,-1.0,-4.9,30.23,NNE,19,0.0,2.0,83,0.00,,---,0.00,0.00,VWS V14.01,2013-02-17 07:50:00,
2013-02-17 01:55:00,-1.0,-4.9,30.23,NNE,19,0.0,2.0,83,0.00,,---,0.00,0.00,VWS V14.01,2013-02-17 07:55:00,
2013-02-17 02:00:00,-1.1,-5.0,30.23,NNE,19,0.0,0.0,83,0.00,,---,0.00,0.00,VWS V14.01,2013-02-17 08:00:00,
2013-02-17 02:05:00,-1.2,-5.1,30.23,NNE,19,0.0,1.0,83,0.00,,---,0.00,0.00,VWS V14.01,2013-02-17 08:05:00,
2013-02-17 02:10:00,-1.3,-5.2,30.23,NNE,19,0.0,1.0,83,0.00,,---,0.00,0.00,VWS V14.01,2013-02-17 08:10:00,
2013-02-17 02:15:00,-1.4,-5.3,30.23,NNE,19,0.0,1.0,83,0.00,,---,0.00,0.00,VWS V14.01,2013-02-17 08:15:00,
2013-02-17 02:20:00,-1.5,-5.4,30.23,NNE,19,0.0,1.0,83,0.00,,---,0.00,0.00,VWS V14.01,2013-02-17 08:20:00,
2013-02-17 02:25:00,-1.6,-5.5,30.23,NNE,19,0.0,1.0,83,0.00,,---,0.00,0.00,VWS V14.01,2013-02-17 08:25:00,
2013-02-17 02:30:00,-1.6,-5.5,30.24,NNE,19,0.0,1.0,83,0.00,,---,0.00,0.00,VWS V14.01,2013-02-17 08:30:00,
2013-02-17 02:35:00,-1.7,-5.6,30.23,NNE,19,0.0,1.0,83,0.00,,---,0.00,0.00,VWS V14.01,2013-02-17 08:35:00,
2013-02-17 02:40:00,-1.8,-5.7,30.24,NNE,19,0.0,1.0,83,0.00,,---,0.00,0.00,VWS V14.01,2013-02-17 08:40:00,
2013-02-17 02:45:00,-1.8,-5.7,30.23,NNE,19,0.0,1.0,83,0.00,,---,0.00,0.00,VWS V14.01,2013-02-17 08:45:00,
2013-02-17 02:50:00,-1.9,-5.8,30.23,NNE,19,0.0,1.0,83,0.00,,---,0.00,0.00,VWS V14.01,2013-02-17 08:50:00,
2013-02-17 02:55:00,-2.0,-5.9,30.23,NNE,19,0.0,1.0,83,0.00,,---,0.00,0.00,VWS V14.01,2013-02-17 08:55:00,
2013-02-17 03:00:00,-2.0,-5.9,30.23,NNE,19,0.0,0.0,83,0.00,,---,0.00,0.00,VWS V14.01,2013-02-17 09:00:00,
2013-02-17 03:05:00,-2.1,-6.0,30.23,NNE,19,0.0,0.0,83,0.00,,---,0.00,0.00,VWS V14.01,2013-02-17 09:05:00,
2013-02-17 03:10:00,-2.2,-6.1,30.23,NNE,19,0.0,0.0,83,0.00,,---,0.00,0.00,VWS V14.01,2013-02-17 09:10:00,
2013-02-17 03:15:00,-2.2,-6.1,30.23,NNE,19,0.0,0.0,83,0.00,,---,0.00,0.00,VWS V14.01,2013-02-17 09:15:00,
2013-02-17 03:20:00,-2.3,-6.2,30.23,NNE,19,0.0,1.0,83,0.00,,---,0.00,0.00,VWS V14.01,2013-02-17 09:20:00,
2013-02-17 03:25:00,-2.4,-6.3,30.23,NNE,19,0.0,1.0,83,0.00,,---,0.00,0.00,VWS V14.01,2013-02-17 09:25:00,
2013-02-17 03:30:00,-2.5,-6.4,30.22,NNE,19,0.0,1.0,83,0.00,,---,0.00,0.00,VWS V14.01,2013-02-17 09:30:00,
2013-02-17 03:35:00,-2.5,-6.4,30.22,NNE,19,0.0,1.0,83,0.00,,---,0.00,0.00,VWS V14.01,2013-02-17 09:35:00,
2013-02-17 03:40:00,-2.6,-6.5,30.22,NNE,19,0.0,1.0,83,0.00,,---,0.00,0.00,VWS V14.01,2013-02-17 09:40:00,
2013-02-17 03:45:00,-2.6,-6.5,30.23,NNE,19,0.0,1.0,83,0.00,,---,0.00,0.00,VWS V14.01,2013-02-17 09:45:00,
2013-02-17 03:50:00,-2.7,-6.6,30.23,NNE,19,0.0,1.0,83,0.00,,---,0.00,0.00,VWS V14.01,2013-02-17 09:50:00,
2013-02-17 03:55:00,-2.7,-6.6,30.23,NNE,19,0.0,1.0,83,0.00,,---,0.00,0.00,VWS V14.01,2013-02-17 09:55:00,
2013-02-17 04:00:00,-2.8,-6.7,30.23,NNE,19,0.0,0.0,83,0.00,,---,0.00,0.00,VWS V14.01,2013-02-17 10:00:00,
2013-02-17 04:05:00,-2.9,-6.8,30.22,NNE,19,0.0,0.0,83,0.00,,---,0.00,0.00,VWS V14.01,2013-02-17 10:05:00,
2013-02-17 04:10:00,-3.0,-6.9,30.22,NNE,19,0.0,0.0,83,0.00,,---,0.00,0.00,VWS V14.01,2013-02-17 10:10:00,
2013-02-17 04:15:00,-3.1,-7.0,30.22,NNE,19,0.0,0.0,83,0.00,,---,0.00,0.00,VWS V14.01,2013-02-17 10:15:00,
2013-02-17 04:20:00,-3.1,-7.0,30.23,NNE,19,0.0,0.0,83,0.00,,---,0.00,0.00,VWS V14.01,2013-02-17 10:20:00,
2013-02-17 04:25:00,-3.2,-7.1,30.23,NNE,19,0.0,0.0,83,0.00,,---,0.00,0.00,VWS V14.01,2013-02-17 10:25:00,
2013-02-17 04:30:00,-3.2,-7.1,30.23,NNE,19,0.0,0.0,83,0.00,,---,0.00,0.00,VWS V14.01,2013-02-17 10:30:00,
2013-02-17 04:35:00,-3.3,-7.2,30.23,NNE,19,0.0,0.0,83,0.00,,---,0.00,0.00,VWS V14.01,2013-02-17 10:35:00,
2013-02-17 04:40:00,-3.4,-7.3,30.23,NNE,19,0.0,0.0,83,0.00,,---,0.00,0.00,VWS V14.01,2013-02-17 10:40:00,
2013-02-17 04:45:00,-3.4,-7.3,30.22,NNE,19,0.0,1.0,83,0.00,,---,0.00,0.00,VWS V14.01,2013-02-17 10:45:00,
2013-02-17 04:50:00,-3.4,-7.0,30.22,NNE,19,0.0,1.0,84,0.00,,---,0.00,0.00,VWS V14.01,2013-02-17 10:50:00,
2013-02-17 04:55:00,-3.5,-7.4,30.23,NNE,19,0.0,1.0,83,0.00,,---,0.00,0.00,VWS V14.01,2013-02-17 10:55:00,
2013-02-17 05:00:00,-3.5,-7.4,30.23,NNE,19,0.0,0.0,83,0.00,,---,0.00,0.00,VWS V14.01,2013-02-17 11:00:00,
2013-02-17 05:05:00,-3.6,-7.2,30.23,NNE,19,0.0,0.0,84,0.00,,---,0.00,0.00,VWS V14.01,2013-02-17 11:05:00,
2013-02-17 05:10:00,-3.6,-7.2,30.23,NNE,19,0.0,1.0,84,0.00,,---,0.00,0.00,VWS V14.01,2013-02-17 11:10:00,
2013-02-17 05:15:00,-3.7,-7.6,30.23,NNE,19,0.0,1.0,83,0.00,,---,0.00,0.00,VWS V14.01,2013-02-17 11:15:00,
2013-02-17 05:20:00,-3.8,-7.7,30.23,NNE,19,0.0,1.0,83,0.00,,---,0.00,0.00,VWS V14.01,2013-02-17 11:20:00,
2013-02-17 05:25:00,-3.9,-7.8,30.23,NNE,19,0.0,1.0,83,0.00,,---,0.00,0.00,VWS V14.01,2013-02-17 11:25:00,
2013-02-17 05:30:00,-3.9,-7.8,30.23,NNE,19,0.0,1.0,83,0.00,,---,0.00,0.00,VWS V14.01,2013-02-17 11:30:00,
2013-02-17 05:35:00,-3.9,-7.8,30.23,NNE,19,0.0,1.0,83,0.00,,---,0.00,0.00,VWS V14.01,2013-02-17 11:35:00,
2013-02-17 05:40:00,-3.9,-7.5,30.23,NNE,19,0.0,1.0,84,0.00,,---,0.00,0.00,VWS V14.01,2013-02-17 11:40:00,
2013-02-17 05:45:00,-3.9,-7.5,30.23,NNE,19,0.0,1.0,84,0.00,,---,0.00,0.00,VWS V14.01,2013-02-17 11:45:00,
2013-02-17 05:50:00,-4.0,-5.1,30.23,NNE,19,0.0,1.0,95,0.00,,---,0.00,0.00,VWS V14.01,2013-02-17 11:50:00,
2013-02-17 05:55:00,-4.0,-7.6,30.23,NNE,19,0.0,1.0,84,0.00,,---,0.00,0.00,VWS V14.01,2013-02-17 11:55:00,
2013-02-17 06:00:00,-4.1,-7.7,30.23,NNE,19,0.0,0.0,84,0.00,,---,0.00,0.00,VWS V14.01,2013-02-17 12:00:00,
2013-02-17 06:05:00,-4.1,-7.7,30.23,NNE,19,0.0,0.0,84,0.00,,---,0.00,0.00,VWS V14.01,2013-02-17 12:05:00,
2013-02-17 06:10:00,-4.1,-7.7,30.23,NNE,19,0.0,0.0,84,0.00,,---,0.00,0.00,VWS V14.01,2013-02-17 12:10:00,
2013-02-17 06:15:00,-4.2,-7.8,30.24,NNE,19,0.0,0.0,84,0.00,,---,0.00,0.00,VWS V14.01,2013-02-17 12:15:00,
2013-02-17 06:20:00,-4.3,-7.9,30.23,NNE,19,1.0,1.0,84,0.00,,---,0.00,0.00,VWS V14.01,2013-02-17 12:20:00,
2013-02-17 06:25:00,-4.3,-7.9,30.24,NNE,19,0.0,1.0,84,0.00,,---,0.00,0.00,VWS V14.01,2013-02-17 12:25:00,
2013-02-17 06:30:00,-4.4,-8.0,30.23,NNE,19,1.0,2.0,84,0.00,,---,0.00,0.00,VWS V14.01,2013-02-17 12:30:00,
2013-02-17 06:35:00,-4.4,-8.0,30.23,NNE,19,0.0,2.0,84,0.00,,---,0.00,0.00,VWS V14.01,2013-02-17 12:35:00,
2013-02-17 06:40:00,-4.5,-8.1,30.23,NNE,19,0.0,2.0,84,0.00,,---,0.00,0.00,VWS V14.01,2013-02-17 12:40:00,
2013-02-17 06:45:00,-4.5,-8.1,30.23,NNE,19,0.0,2.0,84,0.00,,---,0.00,0.00,VWS V14.01,2013-02-17 12:45:00,
2013-02-17 06:50:00,-4.6,-8.2,30.23,NNE,19,0.0,2.0,84,0.00,,---,0.00,0.00,VWS V14.01,2013-02-17 12:50:00,
2013-02-17 06:55:00,-4.6,-8.2,30.23,NNE,19,0.0,2.0,84,0.00,,---,0.00,0.00,VWS V14.01,2013-02-17 12:55:00,
2013-02-17 07:00:00,-4.6,-8.2,30.23,NNE,19,1.0,1.0,84,0.00,,---,0.00,7.00,VWS V14.01,2013-02-17 13:00:00,
2013-02-17 07:05:00,-4.6,-8.2,30.23,NNE,19,0.0,1.0,84,0.00,,---,0.00,9.00,VWS V14.01,2013-02-17 13:05:00,
2013-02-17 07:10:00,-4.6,-8.2,30.23,NNE,19,0.0,1.0,84,0.00,,---,0.00,11.00,VWS V14.01,2013-02-17 13:10:00,
2013-02-17 07:15:00,-4.6,-8.2,30.24,NNE,19,0.0,1.0,84,0.00,,---,0.00,14.00,VWS V14.01,2013-02-17 13:15:00,
2013-02-17 07:20:00,-4.6,-8.2,30.24,NNE,19,0.0,1.0,84,0.00,,---,0.00,16.00,VWS V14.01,2013-02-17 13:20:00,
2013-02-17 07:25:00,-4.5,-8.1,30.23,NNE,19,0.0,1.0,84,0.00,,---,0.00,21.00,VWS V14.01,2013-02-17 13:25:00,
2013-02-17 07:30:00,-4.5,-8.1,30.23,NNE,19,0.0,1.0,84,0.00,,---,0.00,23.00,VWS V14.01,2013-02-17 13:30:00,
2013-02-17 07:35:00,-4.3,-7.9,30.23,NNE,19,0.0,1.0,84,0.00,,---,0.00,25.00,VWS V14.01,2013-02-17 13:35:00,
2013-02-17 07:40:00,-4.1,-7.5,30.23,NNE,19,0.0,1.0,85,0.00,,---,0.00,30.00,VWS V14.01,2013-02-17 13:40:00,
2013-02-17 07:45:00,-4.0,-7.4,30.23,NNE,19,0.0,1.0,85,0.00,,---,0.00,44.00,VWS V14.01,2013-02-17 13:45:00,
2013-02-17 07:50:00,-3.8,-7.2,30.23,NNE,19,0.0,1.0,85,0.00,,---,0.00,53.00,VWS V14.01,2013-02-17 13:50:00,
2013-02-17 07:55:00,-3.6,-7.0,30.23,NNE,19,0.0,1.0,85,0.00,,---,0.00,97.00,VWS V14.01,2013-02-17 13:55:00,
2013-02-17 08:00:00,-3.3,-6.7,30.23,NNE,19,0.0,0.0,85,0.00,,---,0.00,107.00,VWS V14.01,2013-02-17 14:00:00,
2013-02-17 08:05:00,-2.9,-6.3,30.23,NNE,19,0.0,0.0,85,0.00,,---,0.00,130.00,VWS V14.01,2013-02-17 14:05:00,
2013-02-17 08:10:00,-2.2,-5.3,30.23,NNE,19,0.0,0.0,86,0.00,,---,0.00,123.00,VWS V14.01,2013-02-17 14:10:00,
2013-02-17 08:15:00,-1.5,-4.7,30.23,NNE,19,0.0,1.0,86,0.00,,---,0.00,128.00,VWS V14.01,2013-02-17 14:15:00,
2013-02-17 08:20:00,-1.0,-3.9,30.23,NNE,19,0.0,1.0,87,0.00,,---,0.00,151.00,VWS V14.01,2013-02-17 14:20:00,
2013-02-17 08:25:00,-0.6,-3.5,30.23,NNE,19,0.0,1.0,87,0.00,,---,0.00,142.00,VWS V14.01,2013-02-17 14:25:00,
2013-02-17 08:30:00,0.1,-2.8,30.23,NNE,19,1.0,2.0,87,0.00,,---,0.00,98.00,VWS V14.01,2013-02-17 14:30:00,
2013-02-17 08:35:00,0.8,-2.2,30.23,NNE,19,1.0,2.0,87,0.00,,---,0.00,65.00,VWS V14.01,2013-02-17 14:35:00,
2013-02-17 08:40:00,1.4,-1.6,30.23,NNE,19,0.0,2.0,87,0.00,,---,0.00,111.00,VWS V14.01,2013-02-17 14:40:00,
2013-02-17 08:45:00,1.9,-1.1,30.23,NNE,19,0.0,2.0,87,0.00,,---,0.00,111.00,VWS V14.01,2013-02-17 14:45:00,
2013-02-17 08:50:00,2.2,-0.8,30.22,NNE,19,0.0,2.0,87,0.00,,---,0.00,120.00,VWS V14.01,2013-02-17 14:50:00,
2013-02-17 08:55:00,2.8,-0.2,30.22,NNE,19,1.0,2.0,87,0.00,,---,0.00,83.00,VWS V14.01,2013-02-17 14:55:00,
2013-02-17 09:00:00,3.6,0.6,30.22,NNE,19,0.0,0.0,87,0.00,,---,0.00,128.00,VWS V14.01,2013-02-17 15:00:00,
2013-02-17 09:05:00,4.2,1.2,30.21,NNE,19,0.0,1.0,87,0.00,,---,0.00,171.00,VWS V14.01,2013-02-17 15:05:00,
2013-02-17 09:10:00,4.7,1.7,30.22,NNE,19,0.0,1.0,87,0.00,,---,0.00,134.00,VWS V14.01,2013-02-17 15:10:00,
2013-02-17 09:15:00,5.7,2.7,30.21,WNW,294,1.0,3.0,87,0.00,,---,0.00,97.00,VWS V14.01,2013-02-17 15:15:00,
2013-02-17 09:20:00,6.6,3.6,30.22,WNW,294,2.0,3.0,87,0.00,,---,0.00,160.00,VWS V14.01,2013-02-17 15:20:00,
2013-02-17 09:25:00,7.2,4.2,30.21,WNW,294,0.0,3.0,87,0.00,,---,0.00,93.00,VWS V14.01,2013-02-17 15:25:00,
2013-02-17 09:30:00,7.8,4.5,30.21,WSW,240,3.0,3.0,86,0.00,,---,0.00,149.00,VWS V14.01,2013-02-17 15:30:00,
2013-02-17 09:35:00,8.6,5.0,30.21,WSW,240,2.0,3.0,85,0.00,,---,0.00,120.00,VWS V14.01,2013-02-17 15:35:00,
2013-02-17 09:40:00,9.3,5.4,30.21,WSW,240,0.0,3.0,84,0.00,,---,0.00,169.00,VWS V14.01,2013-02-17 15:40:00,
2013-02-17 09:45:00,10.1,5.7,30.21,South,175,2.0,5.0,82,0.00,,---,0.00,304.00,VWS V14.01,2013-02-17 15:45:00,
2013-02-17 09:50:00,11.0,5.8,30.22,SSE,162,1.0,5.0,79,0.00,,---,0.00,323.00,VWS V14.01,2013-02-17 15:50:00,
2013-02-17 09:55:00,12.2,6.1,30.22,SSW,201,1.0,5.0,76,0.00,,---,0.00,330.00,VWS V14.01,2013-02-17 15:55:00,
2013-02-17 10:00:00,13.5,5.9,30.22,SE,146,4.0,4.0,71,0.00,,---,0.00,475.00,VWS V14.01,2013-02-17 16:00:00,
2013-02-17 10:05:00,14.3,5.7,30.22,SSW,201,3.0,5.0,68,0.00,,---,0.00,490.00,VWS V14.01,2013-02-17 16:05:00,
2013-02-17 10:10:00,14.9,6.3,30.22,SSW,192,2.0,5.0,68,0.00,,---,0.00,512.00,VWS V14.01,2013-02-17 16:10:00,
2013-02-17 10:15:00,15.4,6.7,30.22,South,169,3.0,5.0,68,0.00,,---,0.00,503.00,VWS V14.01,2013-02-17 16:15:00,
2013-02-17 10:20:00,16.0,6.0,30.21,SSE,157,2.0,6.0,64,0.00,,---,0.00,531.00,VWS V14.01,2013-02-17 16:20:00,
2013-02-17 10:25:00,16.5,6.1,30.21,South,188,3.0,7.0,63,0.00,,---,0.00,545.00,VWS V14.01,2013-02-17 16:25:00,
2013-02-17 10:30:00,16.7,6.0,30.21,South,175,3.0,7.0,62,0.00,,---,0.00,554.00,VWS V14.01,2013-02-17 16:30:00,
2013-02-17 10:35:00,16.8,5.7,30.21,SW,231,7.0,8.0,61,0.00,,---,0.00,564.00,VWS V14.01,2013-02-17 16:35:00,
2013-02-17 10:39:00,17.3,6.5,30.21,SSW,194,4.0,8.0,62,0.00,,---,0.00,524.00,VWS V14.01,2013-02-17 16:39:00,
2013-02-17 10:44:00,17.5,6.7,30.21,SSW,213,5.0,8.0,62,0.00,,---,0.00,564.00,VWS V14.01,2013-02-17 16:44:00,
2013-02-17 10:49:00,17.4,7.0,30.22,SSW,205,4.0,8.0,63,0.00,,---,0.00,584.00,VWS V14.01,2013-02-17 16:49:00,
2013-02-17 10:55:00,17.9,7.1,30.21,SW,219,5.0,8.0,62,0.00,,---,0.00,619.00,VWS V14.01,2013-02-17 16:55:00,
2013-02-17 11:00:00,18.1,7.3,30.21,South,188,5.0,5.0,62,0.00,,---,0.00,461.00,VWS V14.01,2013-02-17 17:00:00,
2013-02-17 11:05:00,18.4,7.6,30.21,SSW,200,3.0,7.0,62,0.00,,---,0.00,527.00,VWS V14.01,2013-02-17 17:05:00,
2013-02-17 11:10:00,18.4,7.2,30.21,South,187,4.0,7.0,61,0.00,,---,0.00,510.00,VWS V14.01,2013-02-17 17:10:00,
2013-02-17 11:15:00,18.4,7.6,30.21,SSW,208,5.0,7.0,62,0.00,,---,0.00,561.00,VWS V14.01,2013-02-17 17:15:00,
2013-02-17 11:20:00,18.7,7.9,30.21,SSW,196,4.0,8.0,62,0.00,,---,0.00,561.00,VWS V14.01,2013-02-17 17:20:00,
2013-02-17 11:24:00,18.9,7.3,30.21,South,190,4.0,8.0,60,0.00,,---,0.00,605.00,VWS V14.01,2013-02-17 17:24:00,
2013-02-17 11:29:00,19.3,7.7,30.21,South,181,2.0,8.0,60,0.00,,---,0.00,599.00,VWS V14.01,2013-02-17 17:29:00,
2013-02-17 11:35:00,19.7,8.8,30.20,SSW,207,4.0,8.0,62,0.00,,---,0.00,631.00,VWS V14.01,2013-02-17 17:35:00,
2013-02-17 11:39:00,19.3,8.1,30.20,SSW,209,6.0,8.0,61,0.00,,---,0.00,635.00,VWS V14.01,2013-02-17 17:39:00,
2013-02-17 11:44:00,19.7,8.1,30.20,South,179,2.0,8.0,60,0.00,,---,0.00,617.00,VWS V14.01,2013-02-17 17:44:00,
2013-02-17 11:49:00,20.0,8.7,30.19,SSW,209,4.0,8.0,61,0.00,,---,0.00,647.00,VWS V14.01,2013-02-17 17:49:00,
2013-02-17 11:54:00,20.1,9.2,30.19,South,184,2.0,8.0,62,0.00,,---,0.00,640.00,VWS V14.01,2013-02-17 17:54:00,
2013-02-17 11:59:00,20.5,8.8,30.19,SSE,159,2.0,2.0,60,0.00,,---,0.00,636.00,VWS V14.01,2013-02-17 17:59:00,
2013-02-17 12:00:00,20.4,8.7,30.19,SSE,159,2.0,8.0,60,0.00,,---,0.00,638.00,VWS V14.01,2013-02-17 18:00:00,
2013-02-17 12:04:00,21.3,8.8,30.18,SE,140,3.0,7.0,58,0.00,,---,0.00,636.00,VWS V14.01,2013-02-17 18:04:00,
2013-02-17 12:09:00,20.8,8.0,30.18,SE,128,3.0,7.0,57,0.00,,---,0.00,643.00,VWS V14.01,2013-02-17 18:09:00,
2013-02-17 12:14:00,21.2,8.7,30.18,SSE,156,4.0,8.0,58,0.00,,---,0.00,635.00,VWS V14.01,2013-02-17 18:14:00,
2013-02-17 12:19:00,21.2,8.4,30.18,South,178,2.0,8.0,57,0.00,,---,0.00,645.00,VWS V14.01,2013-02-17 18:19:00,
2013-02-17 12:24:00,21.6,9.1,30.17,SE,135,5.0,8.0,58,0.00,,---,0.00,666.00,VWS V14.01,2013-02-17 18:24:00,
2013-02-17 12:29:00,21.8,8.9,30.16,South,187,5.0,8.0,57,0.00,,---,0.00,657.00,VWS V14.01,2013-02-17 18:29:00,
2013-02-17 12:34:00,21.7,9.6,30.16,SSE,167,3.0,8.0,59,0.00,,---,0.00,608.00,VWS V14.01,2013-02-17 18:34:00,
2013-02-17 12:39:00,22.3,10.2,30.16,South,182,2.0,8.0,59,0.00,,---,0.00,643.00,VWS V14.01,2013-02-17 18:39:00,
2013-02-17 12:44:00,22.9,10.0,30.16,SSE,159,4.0,8.0,57,0.00,,---,0.00,647.00,VWS V14.01,2013-02-17 18:44:00,
2013-02-17 12:49:00,23.0,10.4,30.16,SSE,157,3.0,8.0,58,0.00,,---,0.00,636.00,VWS V14.01,2013-02-17 18:49:00,
2013-02-17 12:54:00,22.9,9.6,30.16,SSE,163,2.0,8.0,56,0.00,,---,0.00,575.00,VWS V14.01,2013-02-17 18:54:00,
2013-02-17 12:59:00,23.0,10.1,30.16,SW,215,6.0,6.0,57,0.00,,---,0.00,629.00,VWS V14.01,2013-02-17 18:59:00,
2013-02-17 13:00:00,23.0,10.1,30.16,South,186,2.0,8.0,57,0.00,,---,0.00,626.00,VWS V14.01,2013-02-17 19:00:00,
2013-02-17 13:04:00,23.2,10.6,30.16,SSW,211,5.0,6.0,58,0.00,,---,0.00,610.00,VWS V14.01,2013-02-17 19:04:00,
2013-02-17 13:09:00,23.1,10.9,30.16,South,190,4.0,7.0,59,0.00,,---,0.00,601.00,VWS V14.01,2013-02-17 19:09:00,
2013-02-17 13:14:00,23.6,10.6,30.15,SSW,202,3.0,7.0,57,0.00,,---,0.00,592.00,VWS V14.01,2013-02-17 19:14:00,
2013-02-17 13:19:00,23.7,10.7,30.15,SSW,212,4.0,7.0,57,0.00,,---,0.00,578.00,VWS V14.01,2013-02-17 19:19:00,
2013-02-17 13:24:00,23.9,10.9,30.15,South,187,4.0,7.0,57,0.00,,---,0.00,613.00,VWS V14.01,2013-02-17 19:24:00,
2013-02-17 13:29:00,24.0,11.8,30.14,South,180,4.0,8.0,59,0.00,,---,0.00,601.00,VWS V14.01,2013-02-17 19:29:00,
2013-02-17 13:34:00,24.5,11.1,30.14,South,174,6.0,8.0,56,0.00,,---,0.00,598.00,VWS V14.01,2013-02-17 19:34:00,
2013-02-17 13:39:00,24.8,10.9,30.13,SE,142,2.0,8.0,55,0.00,,---,0.00,589.00,VWS V14.01,2013-02-17 19:39:00,
2013-02-17 13:44:00,24.7,10.9,30.13,SSW,205,2.0,8.0,55,0.00,,---,0.00,482.00,VWS V14.01,2013-02-17 19:44:00,
2013-02-17 13:49:00,25.2,10.9,30.13,South,170,4.0,8.0,54,0.00,,---,0.00,464.00,VWS V14.01,2013-02-17 19:49:00,
2013-02-17 13:54:00,25.0,10.7,30.12,SSE,165,3.0,8.0,54,0.00,,---,0.00,517.00,VWS V14.01,2013-02-17 19:54:00,
2013-02-17 13:59:00,24.9,11.0,30.12,South,185,1.0,4.0,55,0.00,,---,0.00,555.00,VWS V14.01,2013-02-17 19:59:00,
2013-02-17 14:00:00,24.9,11.0,30.12,South,185,4.0,8.0,55,0.00,,---,0.00,555.00,VWS V14.01,2013-02-17 20:00:00,
2013-02-17 14:04:00,25.9,11.6,30.11,ESE,116,3.0,4.0,54,0.00,,---,0.00,548.00,VWS V14.01,2013-02-17 20:04:00,
2013-02-17 14:09:00,26.0,11.2,30.11,SSE,155,4.0,7.0,53,0.00,,---,0.00,520.00,VWS V14.01,2013-02-17 20:09:00,
2013-02-17 14:14:00,25.8,11.5,30.11,SSE,150,2.0,7.0,54,0.00,,---,0.00,490.00,VWS V14.01,2013-02-17 20:14:00,
2013-02-17 14:19:00,26.2,11.8,30.11,SE,140,2.0,7.0,54,0.00,,---,0.00,457.00,VWS V14.01,2013-02-17 20:19:00,
2013-02-17 14:24:00,25.7,10.9,30.11,SE,138,3.0,7.0,53,0.00,,---,0.00,390.00,VWS V14.01,2013-02-17 20:24:00,
2013-02-17 14:29:00,25.6,11.7,30.11,SE,141,2.0,7.0,55,0.00,,---,0.00,332.00,VWS V14.01,2013-02-17 20:29:00,
2013-02-17 14:34:00,25.9,12.0,30.11,ESE,123,2.0,7.0,55,0.00,,---,0.00,406.00,VWS V14.01,2013-02-17 20:34:00,
2013-02-17 14:39:00,25.9,12.4,30.11,SSE,156,5.0,7.0,56,0.00,,---,0.00,410.00,VWS V14.01,2013-02-17 20:39:00,
2013-02-17 14:44:00,26.0,12.5,30.10,SE,143,6.0,7.0,56,0.00,,---,0.00,346.00,VWS V14.01,2013-02-17 20:44:00,
2013-02-17 14:49:00,26.0,12.5,30.10,SSE,153,3.0,7.0,56,0.00,,---,0.00,415.00,VWS V14.01,2013-02-17 20:49:00,
2013-02-17 14:54:00,26.2,12.7,30.10,SE,140,6.0,7.0,56,0.00,,---,0.00,403.00,VWS V14.01,2013-02-17 20:54:00,
2013-02-17 14:59:00,26.1,13.0,30.10,SSE,161,7.0,7.0,57,0.00,,---,0.00,313.00,VWS V14.01,2013-02-17 20:59:00,
2013-02-17 15:00:00,26.1,13.0,30.09,SSE,163,6.0,8.0,57,0.00,,---,0.00,313.00,VWS V14.01,2013-02-17 21:00:00,
2013-02-17 15:04:00,26.0,12.5,30.09,ESE,113,2.0,7.0,56,0.00,,---,0.00,371.00,VWS V14.01,2013-02-17 21:04:00,
2013-02-17 15:09:00,26.1,13.0,30.09,SE,146,5.0,7.0,57,0.00,,---,0.00,378.00,VWS V14.01,2013-02-17 21:09:00,
2013-02-17 15:14:00,26.3,13.1,30.08,South,181,2.0,7.0,57,0.00,,---,0.00,343.00,VWS V14.01,2013-02-17 21:14:00,
2013-02-17 15:19:00,26.5,13.3,30.08,ESE,117,3.0,7.0,57,0.00,,---,0.00,299.00,VWS V14.01,2013-02-17 21:19:00,
2013-02-17 15:24:00,26.5,12.9,30.08,SE,128,4.0,7.0,56,0.00,,---,0.00,267.00,VWS V14.01,2013-02-17 21:24:00,
2013-02-17 15:29:00,26.3,13.1,30.08,SE,146,5.0,7.0,57,0.00,,---,0.00,299.00,VWS V14.01,2013-02-17 21:29:00,
2013-02-17 15:34:00,26.1,13.0,30.08,SSE,152,5.0,9.0,57,0.00,,---,0.00,251.00,VWS V14.01,2013-02-17 21:34:00,
2013-02-17 15:39:00,26.0,13.3,30.08,SSE,153,4.0,9.0,58,0.00,,---,0.00,308.00,VWS V14.01,2013-02-17 21:39:00,
2013-02-17 15:44:00,26.1,13.4,30.08,SSE,151,4.0,9.0,58,0.00,,---,0.00,292.00,VWS V14.01,2013-02-17 21:44:00,
2013-02-17 15:49:00,26.1,13.4,30.08,South,183,3.0,9.0,58,0.00,,---,0.00,274.00,VWS V14.01,2013-02-17 21:49:00,
2013-02-17 15:54:00,26.2,13.4,30.07,SSE,148,4.0,9.0,58,0.00,,---,0.00,230.00,VWS V14.01,2013-02-17 21:54:00,
2013-02-17 15:59:00,26.3,13.9,30.07,South,184,3.0,5.0,59,0.00,,---,0.00,220.00,VWS V14.01,2013-02-17 21:59:00,
2013-02-17 16:00:00,26.3,13.9,30.07,South,182,5.0,9.0,59,0.00,,---,0.00,239.00,VWS V14.01,2013-02-17 22:00:00,
2013-02-17 16:04:00,26.3,13.6,30.07,SSE,167,6.0,7.0,58,0.00,,---,0.00,195.00,VWS V14.01,2013-02-17 22:04:00,
2013-02-17 16:09:00,26.2,13.8,30.07,SE,144,5.0,8.0,59,0.00,,---,0.00,95.00,VWS V14.01,2013-02-17 22:09:00,
2013-02-17 16:14:00,26.1,13.8,30.07,SSE,148,2.0,8.0,59,0.00,,---,0.00,65.00,VWS V14.01,2013-02-17 22:14:00,
2013-02-17 16:19:00,26.0,13.6,30.07,South,175,5.0,8.0,59,0.00,,---,0.00,62.00,VWS V14.01,2013-02-17 22:19:00,
2013-02-17 16:24:00,25.7,13.8,30.07,South,182,3.0,8.0,60,0.00,,---,0.00,60.00,VWS V14.01,2013-02-17 22:24:00,
2013-02-17 16:29:00,25.5,13.6,30.06,SE,146,4.0,8.0,60,0.00,,---,0.00,65.00,VWS V14.01,2013-02-17 22:29:00,
2013-02-17 16:34:00,25.4,13.8,30.06,SSE,152,4.0,8.0,61,0.00,,---,0.00,46.00,VWS V14.01,2013-02-17 22:34:00,
2013-02-17 16:39:00,25.2,13.6,30.06,SSE,163,4.0,8.0,61,0.00,,---,0.00,58.00,VWS V14.01,2013-02-17 22:39:00,
2013-02-17 16:44:00,25.2,14.0,30.06,SE,146,5.0,8.0,62,0.00,,---,0.00,32.00,VWS V14.01,2013-02-17 22:44:00,
2013-02-17 16:49:00,25.2,14.0,30.05,SSE,156,4.0,8.0,62,0.00,,---,0.00,28.00,VWS V14.01,2013-02-17 22:49:00,
2013-02-17 16:54:00,25.0,13.8,30.05,SE,146,0.0,8.0,62,0.00,,---,0.00,26.00,VWS V14.01,2013-02-17 22:54:00,
2013-02-17 16:59:00,24.8,14.0,30.05,SE,138,3.0,3.0,63,0.00,,---,0.00,21.00,VWS V14.01,2013-02-17 22:59:00,
2013-02-17 17:00:00,24.8,14.0,30.05,SE,138,3.0,8.0,63,0.00,,---,0.00,21.00,VWS V14.01,2013-02-17 23:00:00,
2013-02-17 17:04:00,24.7,13.9,30.05,ESE,109,0.0,5.0,63,0.00,,---,0.00,19.00,VWS V14.01,2013-02-17 23:04:00,
2013-02-17 17:09:00,24.6,13.8,30.05,SE,141,3.0,5.0,63,0.00,,---,0.00,16.00,VWS V14.01,2013-02-17 23:09:00,
2013-02-17 17:14:00,24.4,14.0,30.05,ESE,119,3.0,5.0,64,0.00,,---,0.00,14.00,VWS V14.01,2013-02-17 23:14:00,
2013-02-17 17:19:00,24.3,13.9,30.05,SSE,166,4.0,5.0,64,0.00,,---,0.00,12.00,VWS V14.01,2013-02-17 23:19:00,
2013-02-17 17:24:00,24.3,13.9,30.05,SSE,157,3.0,5.0,64,0.00,,---,0.00,7.00,VWS V14.01,2013-02-17 23:24:00,
2013-02-17 17:29:00,24.2,14.1,30.05,SE,146,3.0,6.0,65,0.00,,---,0.00,0.00,VWS V14.01,2013-02-17 23:29:00,
2013-02-17 17:34:00,24.2,14.1,30.04,SE,137,3.0,6.0,65,0.00,,---,0.00,0.00,VWS V14.01,2013-02-17 23:34:00,
2013-02-17 17:39:00,24.1,14.4,30.04,SSE,147,2.0,6.0,66,0.00,,---,0.00,0.00,VWS V14.01,2013-02-17 23:39:00,
2013-02-17 17:44:00,24.0,14.3,30.05,SSE,157,2.0,6.0,66,0.00,,---,0.00,0.00,VWS V14.01,2013-02-17 23:44:00,
2013-02-17 17:49:00,24.0,14.3,30.05,SSE,158,1.0,7.0,66,0.00,,---,0.00,0.00,VWS V14.01,2013-02-17 23:49:00,
2013-02-17 17:54:00,24.0,14.6,30.04,SE,129,3.0,7.0,67,0.00,,---,0.00,0.00,VWS V14.01,2013-02-17 23:54:00,
2013-02-17 17:59:00,23.9,14.6,30.04,SSE,147,4.0,7.0,67,0.00,,---,0.00,0.00,VWS V14.01,2013-02-17 23:59:00,
2013-02-17 18:00:00,23.9,14.6,30.04,SSE,147,4.0,7.0,67,0.00,,---,0.00,0.00,VWS V14.01,2013-02-18 00:00:00,
2013-02-17 18:04:00,23.9,14.6,30.05,SSE,150,3.0,5.0,67,0.00,,---,0.00,0.00,VWS V14.01,2013-02-18 00:04:00,
2013-02-17 18:09:00,23.8,14.8,30.04,SE,146,3.0,5.0,68,0.00,,---,0.00,0.00,VWS V14.01,2013-02-18 00:09:00,
2013-02-17 18:14:00,23.8,14.8,30.03,SSE,161,2.0,5.0,68,0.00,,---,0.00,0.00,VWS V14.01,2013-02-18 00:14:00,
2013-02-17 18:19:00,23.7,14.7,30.03,SE,136,2.0,5.0,68,0.00,,---,0.00,0.00,VWS V14.01,2013-02-18 00:19:00,
2013-02-17 18:24:00,23.7,14.7,30.03,SE,125,0.0,5.0,68,0.00,,---,0.00,0.00,VWS V14.01,2013-02-18 00:24:00,
2013-02-17 18:29:00,23.7,14.7,30.03,SE,138,3.0,5.0,68,0.00,,---,0.00,0.00,VWS V14.01,2013-02-18 00:29:00,
2013-02-17 18:34:00,23.7,14.7,30.02,SE,128,1.0,5.0,68,0.00,,---,0.00,0.00,VWS V14.01,2013-02-18 00:34:00,
2013-02-17 18:39:00,23.7,15.0,30.02,SE,131,1.0,8.0,69,0.00,,---,0.00,0.00,VWS V14.01,2013-02-18 00:39:00,
2013-02-17 18:44:00,23.7,15.0,30.02,ESE,123,3.0,8.0,69,0.00,,---,0.00,0.00,VWS V14.01,2013-02-18 00:44:00,
2013-02-17 18:49:00,23.7,15.0,30.02,SSE,153,1.0,8.0,69,0.00,,---,0.00,0.00,VWS V14.01,2013-02-18 00:49:00,
2013-02-17 18:54:00,23.7,15.0,30.02,SE,143,1.0,8.0,69,0.00,,---,0.00,0.00,VWS V14.01,2013-02-18 00:54:00,
2013-02-17 18:59:00,23.6,14.9,30.01,SE,132,3.0,8.0,69,0.00,,---,0.00,0.00,VWS V14.01,2013-02-18 00:59:00,
2013-02-17 19:00:00,23.6,14.9,30.01,SE,132,3.0,8.0,69,0.00,,---,0.00,0.00,VWS V14.01,2013-02-18 01:00:00,
2013-02-17 19:04:00,23.6,14.9,30.01,ESE,121,1.0,6.0,69,0.00,,---,0.00,0.00,VWS V14.01,2013-02-18 01:04:00,
2013-02-17 19:09:00,23.6,15.3,30.00,SE,130,4.0,6.0,70,0.00,,---,0.00,0.00,VWS V14.01,2013-02-18 01:09:00,
2013-02-17 19:14:00,23.6,15.3,30.00,SE,144,2.0,6.0,70,0.00,,---,0.00,0.00,VWS V14.01,2013-02-18 01:14:00,
2013-02-17 19:19:00,23.6,15.3,30.00,SE,144,2.0,6.0,70,0.00,,---,0.00,0.00,VWS V14.01,2013-02-18 01:19:00,
2013-02-17 19:24:00,23.6,15.3,30.00,SE,124,2.0,6.0,70,0.00,,---,0.00,0.00,VWS V14.01,2013-02-18 01:24:00,
2013-02-17 19:29:00,23.7,15.4,30.00,SE,140,0.0,6.0,70,0.00,,---,0.00,0.00,VWS V14.01,2013-02-18 01:29:00,
2013-02-17 19:34:00,23.8,15.8,30.00,SSE,155,4.0,6.0,71,0.00,,---,0.00,0.00,VWS V14.01,2013-02-18 01:34:00,
2013-02-17 19:39:00,23.8,15.5,30.00,SSW,192,3.0,6.0,70,0.00,,---,0.00,0.00,VWS V14.01,2013-02-18 01:39:00,
2013-02-17 19:44:00,23.9,15.9,30.00,SSE,167,6.0,6.0,71,0.00,,---,0.00,0.00,VWS V14.01,2013-02-18 01:44:00,
2013-02-17 19:49:00,24.0,16.0,30.00,SSE,165,5.0,6.0,71,0.00,,---,0.00,0.00,VWS V14.01,2013-02-18 01:49:00,
2013-02-17 19:54:00,24.1,16.1,30.00,SE,144,3.0,6.0,71,0.00,,---,0.00,0.00,VWS V14.01,2013-02-18 01:54:00,
2013-02-17 19:59:00,24.2,16.2,30.00,SSE,162,3.0,6.0,71,0.00,,---,0.00,0.00,VWS V14.01,2013-02-18 01:59:00,
2013-02-17 20:00:00,24.2,16.2,30.00,SSE,162,3.0,6.0,71,0.00,,---,0.00,0.00,VWS V14.01,2013-02-18 02:00:00,
2013-02-17 20:04:00,24.2,16.5,29.99,SSE,161,2.0,6.0,72,0.00,,---,0.00,0.00,VWS V14.01,2013-02-18 02:04:00,
2013-02-17 20:09:00,24.3,16.6,29.99,South,191,2.0,6.0,72,0.00,,---,0.00,0.00,VWS V14.01,2013-02-18 02:09:00,
2013-02-17 20:14:00,24.5,16.8,29.99,SSE,148,3.0,8.0,72,0.00,,---,0.00,0.00,VWS V14.01,2013-02-18 02:14:00,
2013-02-17 20:19:00,24.7,17.0,29.98,South,185,4.0,8.0,72,0.00,,---,0.00,0.00,VWS V14.01,2013-02-18 02:19:00,
2013-02-17 20:24:00,24.8,17.1,29.99,SSE,156,5.0,8.0,72,0.00,,---,0.00,0.00,VWS V14.01,2013-02-18 02:24:00,
2013-02-17 20:29:00,24.9,17.2,29.99,SSE,157,5.0,8.0,72,0.00,,---,0.00,0.00,VWS V14.01,2013-02-18 02:29:00,
2013-02-17 20:34:00,24.9,17.2,29.99,SSE,148,4.0,9.0,72,0.00,,---,0.00,0.00,VWS V14.01,2013-02-18 02:34:00,
2013-02-17 20:39:00,25.0,17.6,29.99,SSE,156,6.0,9.0,73,0.00,,---,0.00,0.00,VWS V14.01,2013-02-18 02:39:00,
2013-02-17 20:44:00,25.0,17.6,29.99,SSE,150,5.0,9.0,73,0.00,,---,0.00,0.00,VWS V14.01,2013-02-18 02:44:00,
2013-02-17 20:49:00,25.1,17.7,29.98,ESE,104,3.0,9.0,73,0.00,,---,0.00,0.00,VWS V14.01,2013-02-18 02:49:00,
2013-02-17 20:54:00,25.1,17.7,29.98,SSE,156,7.0,9.0,73,0.00,,---,0.00,0.00,VWS V14.01,2013-02-18 02:54:00,
2013-02-17 20:59:00,25.1,17.7,29.97,SE,146,4.0,9.0,73,0.00,,---,0.00,0.00,VWS V14.01,2013-02-18 02:59:00,
2013-02-17 21:00:00,25.1,17.7,29.97,SSE,152,6.0,9.0,73,0.00,,---,0.00,0.00,VWS V14.01,2013-02-18 03:00:00,
2013-02-17 21:04:00,25.2,17.8,29.97,South,175,3.0,9.0,73,0.00,,---,0.00,0.00,VWS V14.01,2013-02-18 03:04:00,
2013-02-17 21:09:00,25.3,17.9,29.97,SE,130,5.0,9.0,73,0.00,,---,0.00,0.00,VWS V14.01,2013-02-18 03:09:00,
2013-02-17 21:14:00,25.3,18.2,29.97,SE,144,4.0,9.0,74,0.00,,---,0.00,0.00,VWS V14.01,2013-02-18 03:14:00,
2013-02-17 21:19:00,25.4,18.3,29.97,SSE,150,5.0,9.0,74,0.00,,---,0.00,0.00,VWS V14.01,2013-02-18 03:19:00,
2013-02-17 21:24:00,25.4,18.3,29.97,South,176,3.0,9.0,74,0.00,,---,0.00,0.00,VWS V14.01,2013-02-18 03:24:00,
2013-02-17 21:29:00,25.4,18.3,29.97,South,183,2.0,9.0,74,0.00,,---,0.00,0.00,VWS V14.01,2013-02-18 03:29:00,
2013-02-17 21:34:00,25.4,18.3,29.97,SSE,168,3.0,9.0,74,0.00,,---,0.00,0.00,VWS V14.01,2013-02-18 03:34:00,
2013-02-17 21:39:00,25.4,18.3,29.96,SSE,152,3.0,9.0,74,0.00,,---,0.00,0.00,VWS V14.01,2013-02-18 03:39:00,
2013-02-17 21:44:00,25.5,18.4,29.96,SSE,165,3.0,9.0,74,0.00,,---,0.00,0.00,VWS V14.01,2013-02-18 03:44:00,
2013-02-17 21:49:00,25.6,18.8,29.96,SSE,167,3.0,9.0,75,0.00,,---,0.00,0.00,VWS V14.01,2013-02-18 03:49:00,
2013-02-17 21:54:00,25.6,18.8,29.96,SSE,165,4.0,9.0,75,0.00,,---,0.00,0.00,VWS V14.01,2013-02-18 03:54:00,
2013-02-17 21:59:00,25.7,18.9,29.95,SE,146,3.0,9.0,75,0.00,,---,0.00,0.00,VWS V14.01,2013-02-18 03:59:00,
2013-02-17 22:00:00,25.7,18.9,29.95,SSE,147,2.0,9.0,75,0.00,,---,0.00,0.00,VWS V14.01,2013-02-18 04:00:00,
2013-02-17 22:04:00,25.7,18.9,29.95,SSE,150,4.0,8.0,75,0.00,,---,0.00,0.00,VWS V14.01,2013-02-18 04:04:00,
2013-02-17 22:09:00,25.8,19.0,29.95,SSE,159,3.0,8.0,75,0.00,,---,0.00,0.00,VWS V14.01,2013-02-18 04:09:00,
2013-02-17 22:14:00,25.9,19.1,29.95,South,172,3.0,8.0,75,0.00,,---,0.00,0.00,VWS V14.01,2013-02-18 04:14:00,
2013-02-17 22:19:00,26.0,19.2,29.94,SSW,194,3.0,11.0,75,0.00,,---,0.00,0.00,VWS V14.01,2013-02-18 04:19:00,
2013-02-17 22:24:00,26.1,19.3,29.94,SSE,161,5.0,11.0,75,0.00,,---,0.00,0.00,VWS V14.01,2013-02-18 04:24:00,
2013-02-17 22:29:00,26.2,19.4,29.94,SSE,156,2.0,11.0,75,0.00,,---,0.00,0.00,VWS V14.01,2013-02-18 04:29:00,
2013-02-17 22:34:00,26.2,19.4,29.93,SSE,161,3.0,11.0,75,0.00,,---,0.00,0.00,VWS V14.01,2013-02-18 04:34:00,
2013-02-17 22:39:00,26.3,19.5,29.93,South,178,3.0,11.0,75,0.00,,---,0.00,0.00,VWS V14.01,2013-02-18 04:39:00,
2013-02-17 22:44:00,26.3,19.5,29.92,SE,128,4.0,11.0,75,0.00,,---,0.00,0.00,VWS V14.01,2013-02-18 04:44:00,
2013-02-17 22:49:00,26.4,19.6,29.92,South,170,3.0,11.0,75,0.00,,---,0.00,0.00,VWS V14.01,2013-02-18 04:49:00,
2013-02-17 22:54:00,26.5,19.7,29.92,South,175,2.0,11.0,75,0.00,,---,0.00,0.00,VWS V14.01,2013-02-18 04:54:00,
2013-02-17 22:59:00,26.6,19.8,29.92,SSE,160,5.0,11.0,75,0.00,,---,0.00,0.00,VWS V14.01,2013-02-18 04:59:00,
2013-02-17 23:00:00,26.6,19.8,29.92,SE,134,0.0,2.0,75,0.00,,---,0.00,0.00,VWS V14.01,2013-02-18 05:00:00,
2013-02-17 23:05:00,26.7,19.9,29.92,SSE,152,6.0,9.0,75,0.00,,---,0.00,0.00,VWS V14.01,2013-02-18 05:05:00,
2013-02-17 23:10:00,26.9,20.0,29.92,SE,133,3.0,9.0,75,0.00,,---,0.00,0.00,VWS V14.01,2013-02-18 05:10:00,
2013-02-17 23:15:00,26.9,20.0,29.92,SSW,198,3.0,9.0,75,0.00,,---,0.00,0.00,VWS V14.01,2013-02-18 05:15:00,
2013-02-17 23:20:00,27.0,20.1,29.91,South,171,4.0,9.0,75,0.00,,---,0.00,0.00,VWS V14.01,2013-02-18 05:20:00,
2013-02-17 23:25:00,27.1,20.2,29.92,South,171,0.0,9.0,75,0.00,,---,0.00,0.00,VWS V14.01,2013-02-18 05:25:00,
2013-02-17 23:30:00,27.1,20.2,29.92,SE,138,2.0,9.0,75,0.00,,---,0.00,0.00,VWS V14.01,2013-02-18 05:30:00,
2013-02-17 23:35:00,27.2,20.3,29.91,SSE,159,5.0,9.0,75,0.00,,---,0.00,0.00,VWS V14.01,2013-02-18 05:35:00,
2013-02-17 23:40:00,27.2,20.3,29.91,SSE,150,3.0,9.0,75,0.00,,---,0.00,0.00,VWS V14.01,2013-02-18 05:40:00,
2013-02-17 23:45:00,27.3,20.4,29.91,SSE,153,4.0,9.0,75,0.00,,---,0.00,0.00,VWS V14.01,2013-02-18 05:45:00,
2013-02-17 23:50:00,27.4,20.5,29.90,SSE,148,0.0,9.0,75,0.00,,---,0.00,0.00,VWS V14.01,2013-02-18 05:50:00,
2013-02-17 23:55:00,27.4,20.5,29.91,South,183,2.0,9.0,75,0.00,,---,0.00,0.00,VWS V14.01,2013-02-18 05:55:00,